Starlink 11177

operational
NORAD ID: 60118 Int'l Des: 2024-118 Owner: SPXS Country: US Constellation: starlink
LEOCIRCULAR

Starlink 11177について

説明を読み込み中...

リアルタイム位置

3D地球を読み込み中...

次回通過

高度履歴

Altitude vs Time

uPlot chart will show altitude changes over time

軌道要素

1 60118U 24118F 26095.24465818 .00000074 00000-0 54708-5 0 9992
2 60118 53.1592 90.3861 0001205 112.8271 247.2875 15.69688122102163
Epoch: Apr 5, 2026 • Age: 15 hours

現在のステータス

高度 360.4 km
速度 7.69 km/s
衛星直下点 6.15°N, 60.11°W
打ち上げ日 Jun 24, 2024
運用期間 1.7 years
タイプ internet

技術仕様

分類 Payload
質量 960.00 kg
乾燥質量 910.00 kg
総質量 960.00 kg
長さ 0.30 m
直径 4.10 m
スパン 29.00 m
形状 Box + pan
製造者 SPXS
バスタイプ Starlink V2MD
フェーズステータス In Orbit
所有者/国 SPXS/US

大規模コンステレーション

Loading constellations...